date:2025-05-10T06:13:21+00:00
validtle:1
satid:63759
launchyear:2025
epoch:25129.58335648
epochday:129
tleage:1
tleclassification:U
active:1
name:STARLINK-11703
meananomly:179.7829
meanmotion:15.8480
rightascension:0.0000
declination:0.0000
semimajoraxis:6695.0399698616
altitudeatperigee:315
altitudeatapogee:318
inclination:43.0048
eccentricity:0.0002111
argumentofperigree:258.9318
nickname:STARLINK-11703
idesg:25089J  
cosparid:2025-089J
altkm:321.20308736811
velkms:7.7208015625405
velkmh:27795
onumepoch:228
onumnow:3624.05
otype:1
otypedesc:Low Earth Orbit (LEO)
status:1
timestamp:2025-05-09T14:00:02+00:00
nowjuliandate:2460805.7592754
nowepochdate:25130.2592708333
TLE:
STARLINK-11703 [DTC]
1 63759U 25089J   25129.58335648 -.00045499  00000+0 -18800-3 0  9997
2 63759  43.0048 328.1480 0002111 258.9318 179.7829 15.84795375  2287